AAL642 KCLT-KEYW

Flight info

Callsign AAL642
Flight time 1h 38m
Altitude 36000
Route BEAVY6 JENDO MAVRC TEUFL Q75 ENEME FNTSY1
Aircraft A321/M-SDE3FGHIRWY/LB1

Departure

Time 2026-05-05 20:36
Airport Charlotte Douglas International Airport (KCLT)

Arrival

Time 2026-05-05 22:14
Airport Key West International Airport (KEYW)
Time Latitude Longitude Altitude Speed Heading
2026-05-05 20:06 35.22118 -80.93987 732 ft 0 kts 176°
2026-05-05 20:25 35.22139 -80.93988 732 ft 4 kts 175°
2026-05-05 20:25 35.22163 -80.93997 731 ft 4 kts 133°
2026-05-05 20:26 35.22173 -80.94024 732 ft 4 kts 88°
2026-05-05 20:26 35.22172 -80.94035 732 ft 0 kts 85°
2026-05-05 20:31 35.22174 -80.94008 732 ft 7 kts 86°
2026-05-05 20:32 35.22179 -80.93927 732 ft 11 kts 86°
2026-05-05 20:32 35.22154 -80.93837 731 ft 12 kts 128°
2026-05-05 20:32 35.22077 -80.93808 732 ft 12 kts 169°
2026-05-05 20:32 35.21996 -80.93818 732 ft 13 kts 220°
2026-05-05 20:33 35.21932 -80.93896 731 ft 13 kts 225°
2026-05-05 20:33 35.21865 -80.93890 732 ft 12 kts 105°
2026-05-05 20:33 35.21904 -80.93808 732 ft 12 kts 46°
2026-05-05 20:33 35.21966 -80.93730 733 ft 13 kts 43°
2026-05-05 20:34 35.22054 -80.93716 733 ft 13 kts 356°
2026-05-05 20:34 35.22149 -80.93724 733 ft 14 kts 356°
2026-05-05 20:34 35.22250 -80.93733 733 ft 16 kts 356°
2026-05-05 20:34 35.22365 -80.93738 733 ft 16 kts 12°
2026-05-05 20:35 35.22391 -80.93634 734 ft 15 kts 127°
2026-05-05 20:35 35.22240 -80.93597 736 ft 44 kts 175°
2026-05-05 20:35 35.21704 -80.93555 735 ft 111 kts 176°
2026-05-05 20:35 35.20741 -80.93475 748 ft 162 kts 177°
2026-05-05 20:36 35.19625 -80.93380 1465 ft 155 kts 177°
2026-05-05 20:36 35.18545 -80.93302 2194 ft 156 kts 177°
2026-05-05 20:36 35.17446 -80.93251 2734 ft 166 kts 181°
2026-05-05 20:36 35.16284 -80.93271 3246 ft 168 kts 184°
2026-05-05 20:37 35.15087 -80.93366 3774 ft 172 kts 187°
2026-05-05 20:37 35.13871 -80.93708 4110 ft 187 kts 197°
2026-05-05 20:37 35.12581 -80.94179 4316 ft 207 kts 197°
2026-05-05 20:37 35.11130 -80.94731 4453 ft 231 kts 197°
2026-05-05 20:38 35.09523 -80.95342 4767 ft 250 kts 197°
2026-05-05 20:38 35.07836 -80.95974 5410 ft 256 kts 197°
2026-05-05 20:38 35.06121 -80.96608 6130 ft 259 kts 197°
2026-05-05 20:38 35.04388 -80.97243 6838 ft 262 kts 197°
2026-05-05 20:39 35.02630 -80.97883 7547 ft 264 kts 197°
2026-05-05 20:39 35.00858 -80.98520 8236 ft 267 kts 197°
2026-05-05 20:39 34.99059 -80.99163 8918 ft 271 kts 197°
2026-05-05 20:39 34.97247 -80.99817 9589 ft 273 kts 197°
2026-05-05 20:40 34.95410 -81.00466 10260 ft 276 kts 197°
2026-05-05 20:40 34.93510 -81.01142 10534 ft 296 kts 198°
2026-05-05 20:40 34.91467 -81.01878 10662 ft 317 kts 198°
2026-05-05 20:40 34.89299 -81.02662 10921 ft 333 kts 198°
2026-05-05 20:41 34.87062 -81.03475 11517 ft 337 kts 198°
2026-05-05 20:41 34.84807 -81.04287 12115 ft 339 kts 198°
2026-05-05 20:41 34.82534 -81.05103 12707 ft 342 kts 198°
2026-05-05 20:41 34.80226 -81.05847 13249 ft 347 kts 192°
2026-05-05 20:42 34.77818 -81.06296 13778 ft 351 kts 191°
2026-05-05 20:42 34.75394 -81.06739 14321 ft 355 kts 191°
2026-05-05 20:42 34.72938 -81.07189 14850 ft 359 kts 191°
2026-05-05 20:42 34.70457 -81.07641 15344 ft 363 kts 191°
2026-05-05 20:43 34.67948 -81.08102 15840 ft 367 kts 191°
2026-05-05 20:43 34.65412 -81.08570 16315 ft 370 kts 191°
2026-05-05 20:43 34.62856 -81.09042 16787 ft 373 kts 191°
2026-05-05 20:43 34.60274 -81.09517 17252 ft 377 kts 191°
2026-05-05 20:44 34.57667 -81.09993 17689 ft 381 kts 192°
2026-05-05 20:44 34.55037 -81.10486 18128 ft 384 kts 192°
2026-05-05 20:44 34.52393 -81.11030 18560 ft 387 kts 193°
2026-05-05 20:44 34.49735 -81.11611 18984 ft 390 kts 193°
2026-05-05 20:45 34.44362 -81.12813 19798 ft 395 kts 193°
2026-05-05 20:45 34.41644 -81.13416 20198 ft 398 kts 193°
2026-05-05 20:45 34.38905 -81.14013 20586 ft 402 kts 193°
2026-05-05 20:46 34.36146 -81.14621 20964 ft 404 kts 195°
2026-05-05 20:46 34.33392 -81.15343 21324 ft 406 kts 197°
2026-05-05 20:46 34.30640 -81.16162 21686 ft 408 kts 198°
2026-05-05 20:46 34.27882 -81.17035 22045 ft 411 kts 198°
2026-05-05 20:47 34.25118 -81.17922 22403 ft 413 kts 199°
2026-05-05 20:47 34.22364 -81.18796 22740 ft 416 kts 198°
2026-05-05 20:47 34.19548 -81.19669 23079 ft 419 kts 198°
2026-05-05 20:47 34.16715 -81.20532 23414 ft 421 kts 198°
2026-05-05 20:48 34.13864 -81.21389 23748 ft 424 kts 198°
2026-05-05 20:48 34.10991 -81.22249 24076 ft 427 kts 198°
2026-05-05 20:48 34.08062 -81.23128 24395 ft 429 kts 198°
2026-05-05 20:48 34.05196 -81.23988 24697 ft 432 kts 198°
2026-05-05 20:49 34.02264 -81.24864 24982 ft 435 kts 198°
2026-05-05 20:49 33.99321 -81.25744 25272 ft 438 kts 199°
2026-05-05 20:49 33.96351 -81.26631 25528 ft 441 kts 199°
2026-05-05 20:49 33.93358 -81.27527 25768 ft 445 kts 199°
2026-05-05 20:50 33.90347 -81.28428 26033 ft 448 kts 199°
2026-05-05 20:50 33.87318 -81.29333 26300 ft 450 kts 199°
2026-05-05 20:50 33.84268 -81.30256 26572 ft 452 kts 201°
2026-05-05 20:50 33.81300 -81.31465 26831 ft 451 kts 206°
2026-05-05 20:51 33.78345 -81.32755 27088 ft 454 kts 206°
2026-05-05 20:51 33.75366 -81.34056 27349 ft 455 kts 206°
2026-05-05 20:51 33.72380 -81.35356 27598 ft 458 kts 206°
2026-05-05 20:51 33.69376 -81.36663 27821 ft 461 kts 206°
2026-05-05 20:52 33.66353 -81.37975 28067 ft 463 kts 206°
2026-05-05 20:52 33.63317 -81.39291 28316 ft 466 kts 206°
2026-05-05 20:52 33.60263 -81.40615 28560 ft 468 kts 206°
2026-05-05 20:52 33.57193 -81.41944 28772 ft 470 kts 206°
2026-05-05 20:53 33.54109 -81.43279 28988 ft 472 kts 207°
2026-05-05 20:53 33.51011 -81.44618 29221 ft 474 kts 207°
2026-05-05 20:53 33.47906 -81.45959 29418 ft 476 kts 207°
2026-05-05 20:53 33.44778 -81.47305 29602 ft 478 kts 207°
2026-05-05 20:54 33.41644 -81.48650 29795 ft 480 kts 207°
2026-05-05 20:54 33.38494 -81.50000 29974 ft 482 kts 207°
2026-05-05 20:54 33.35337 -81.51356 30156 ft 483 kts 207°
2026-05-05 20:54 33.32177 -81.52719 30402 ft 482 kts 207°
2026-05-05 20:55 33.29020 -81.54081 30631 ft 483 kts 207°
2026-05-05 20:55 33.25853 -81.55446 30840 ft 484 kts 207°
2026-05-05 20:55 33.22685 -81.56808 31057 ft 484 kts 208°
2026-05-05 20:55 33.19514 -81.58167 31276 ft 484 kts 208°
2026-05-05 20:56 33.16345 -81.59524 31492 ft 484 kts 208°
2026-05-05 20:56 33.13180 -81.60886 31715 ft 484 kts 208°
2026-05-05 20:56 33.10010 -81.62250 31934 ft 484 kts 209°
2026-05-05 20:56 33.06839 -81.63610 32158 ft 484 kts 209°
2026-05-05 20:57 33.03667 -81.64964 32356 ft 485 kts 209°
2026-05-05 20:57 33.00489 -81.66315 32544 ft 485 kts 209°
2026-05-05 20:57 32.97309 -81.67669 32746 ft 485 kts 209°
2026-05-05 20:57 32.94131 -81.69025 32944 ft 485 kts 210°
2026-05-05 20:58 32.90958 -81.70380 33165 ft 485 kts 210°
2026-05-05 20:58 32.87786 -81.71734 33373 ft 484 kts 210°
2026-05-05 20:58 32.84612 -81.73087 33566 ft 484 kts 210°
2026-05-05 20:58 32.81442 -81.74434 33748 ft 484 kts 210°
2026-05-05 20:59 32.78272 -81.75778 33950 ft 484 kts 211°
2026-05-05 20:59 32.75097 -81.77125 34129 ft 484 kts 211°
2026-05-05 20:59 32.71968 -81.78449 34349 ft 483 kts 211°
2026-05-05 20:59 32.68770 -81.79800 34565 ft 482 kts 211°
2026-05-05 21:00 32.65652 -81.81117 34793 ft 481 kts 211°
2026-05-05 21:00 32.62418 -81.82374 34999 ft 488 kts 205°
2026-05-05 21:00 32.59083 -81.83272 35196 ft 492 kts 203°
2026-05-05 21:00 32.55746 -81.84130 35421 ft 491 kts 204°
2026-05-05 21:01 32.52410 -81.84982 35632 ft 489 kts 204°
2026-05-05 21:01 32.49085 -81.85830 35851 ft 488 kts 204°
2026-05-05 21:01 32.45774 -81.86679 36007 ft 488 kts 204°
2026-05-05 21:01 32.42467 -81.87525 36038 ft 485 kts 204°
2026-05-05 21:02 32.35919 -81.89205 36047 ft 478 kts 201°
2026-05-05 21:02 32.29460 -81.90871 36039 ft 477 kts 201°
2026-05-05 21:03 32.22977 -81.92531 36044 ft 477 kts 201°
2026-05-05 21:03 32.16493 -81.94189 36045 ft 477 kts 201°
2026-05-05 21:04 32.10001 -81.95848 36052 ft 477 kts 201°
2026-05-05 21:04 32.03511 -81.97497 36055 ft 478 kts 201°
2026-05-05 21:05 31.97016 -81.99149 36057 ft 478 kts 201°
2026-05-05 21:05 31.90511 -82.00804 36063 ft 478 kts 201°
2026-05-05 21:06 31.84086 -82.02722 36056 ft 476 kts 207°
2026-05-05 21:06 31.77722 -82.05072 36059 ft 483 kts 207°
2026-05-05 21:07 31.71251 -82.07421 36061 ft 488 kts 206°
2026-05-05 21:07 31.64748 -82.09753 36061 ft 489 kts 206°
2026-05-05 21:08 31.58233 -82.12095 36061 ft 489 kts 206°
2026-05-05 21:08 31.51721 -82.14445 36068 ft 490 kts 206°
2026-05-05 21:09 31.45194 -82.16798 36075 ft 491 kts 206°
2026-05-05 21:09 31.38670 -82.19159 36078 ft 491 kts 206°
2026-05-05 21:10 31.32140 -82.21517 36077 ft 492 kts 207°
2026-05-05 21:10 31.25599 -82.23866 36077 ft 492 kts 206°
2026-05-05 21:11 31.19057 -82.26208 36072 ft 492 kts 207°
2026-05-05 21:11 31.12516 -82.28548 36072 ft 492 kts 207°
2026-05-05 21:12 31.05966 -82.30884 36066 ft 492 kts 207°
2026-05-05 21:12 30.99458 -82.33204 36068 ft 492 kts 207°
2026-05-05 21:13 30.93978 -82.35155 36073 ft 492 kts 207°
2026-05-05 21:13 30.87422 -82.37499 36074 ft 493 kts 207°
2026-05-05 21:14 30.80870 -82.39842 36078 ft 493 kts 207°
2026-05-05 21:14 30.74313 -82.42171 36077 ft 492 kts 207°
2026-05-05 21:15 30.67575 -82.43983 36078 ft 507 kts 196°
2026-05-05 21:15 30.60564 -82.44928 36077 ft 507 kts 196°
2026-05-05 21:16 30.53555 -82.45883 36077 ft 507 kts 196°
2026-05-05 21:16 30.46537 -82.46856 36076 ft 508 kts 196°
2026-05-05 21:17 30.39519 -82.47815 36077 ft 508 kts 196°
2026-05-05 21:17 30.32495 -82.48777 36077 ft 508 kts 196°
2026-05-05 21:18 30.25466 -82.49730 36073 ft 509 kts 196°
2026-05-05 21:18 30.18471 -82.50635 36071 ft 512 kts 193°
2026-05-05 21:19 30.11291 -82.50832 36070 ft 516 kts 190°
2026-05-05 21:19 30.04105 -82.50985 36070 ft 517 kts 190°
2026-05-05 21:20 29.96911 -82.51149 36072 ft 517 kts 190°
2026-05-05 21:20 29.89717 -82.51312 36076 ft 517 kts 190°
2026-05-05 21:21 29.82522 -82.51470 36078 ft 517 kts 190°
2026-05-05 21:21 29.75327 -82.51627 36078 ft 517 kts 190°
2026-05-05 21:22 29.68133 -82.51782 36079 ft 517 kts 190°
2026-05-05 21:22 29.60945 -82.51945 36080 ft 517 kts 190°
2026-05-05 21:23 29.53757 -82.52102 36079 ft 517 kts 190°
2026-05-05 21:23 29.46561 -82.52254 36076 ft 517 kts 190°
2026-05-05 21:24 29.39374 -82.52406 36071 ft 516 kts 190°
2026-05-05 21:24 29.32194 -82.52568 36070 ft 516 kts 190°
2026-05-05 21:25 29.24981 -82.52551 36069 ft 525 kts 182°
2026-05-05 21:25 29.17707 -82.51275 36073 ft 530 kts 178°
2026-05-05 21:26 29.10426 -82.49942 36070 ft 530 kts 179°
2026-05-05 21:26 29.03150 -82.48632 36071 ft 530 kts 179°
2026-05-05 21:27 28.95869 -82.47314 36077 ft 530 kts 178°
2026-05-05 21:27 28.88587 -82.45994 36076 ft 530 kts 178°
2026-05-05 21:28 28.81297 -82.44679 36076 ft 530 kts 178°
2026-05-05 21:28 28.74015 -82.43369 36073 ft 530 kts 178°
2026-05-05 21:29 28.66779 -82.42066 36069 ft 530 kts 178°
2026-05-05 21:29 28.59490 -82.40757 36070 ft 530 kts 178°
2026-05-05 21:30 28.52195 -82.39447 36072 ft 531 kts 178°
2026-05-05 21:30 28.44909 -82.38141 36071 ft 530 kts 178°
2026-05-05 21:31 28.37615 -82.36834 36064 ft 531 kts 178°
2026-05-05 21:31 28.30311 -82.35525 36063 ft 531 kts 178°
2026-05-05 21:32 28.23014 -82.34227 36069 ft 531 kts 178°
2026-05-05 21:32 28.15709 -82.32923 36067 ft 531 kts 178°
2026-05-05 21:33 28.08413 -82.31624 36062 ft 531 kts 178°
2026-05-05 21:33 28.01135 -82.29999 36059 ft 540 kts 169°
2026-05-05 21:34 27.93946 -82.27519 36057 ft 540 kts 169°
2026-05-05 21:34 27.86767 -82.25056 36052 ft 539 kts 169°
2026-05-05 21:35 27.79580 -82.22604 36050 ft 539 kts 169°
2026-05-05 21:35 27.72395 -82.20155 36050 ft 539 kts 169°
2026-05-05 21:36 27.65208 -82.17702 36048 ft 539 kts 169°
2026-05-05 21:36 27.58020 -82.15262 36053 ft 539 kts 169°
2026-05-05 21:37 27.50839 -82.12822 36060 ft 539 kts 169°
2026-05-05 21:37 27.43664 -82.10383 36066 ft 539 kts 169°
2026-05-05 21:38 27.36488 -82.07943 36059 ft 538 kts 169°
2026-05-05 21:38 27.29322 -82.05517 36060 ft 538 kts 169°
2026-05-05 21:39 27.22157 -82.03102 36062 ft 537 kts 169°
2026-05-05 21:39 27.15001 -82.00690 36059 ft 537 kts 169°
2026-05-05 21:40 27.07968 -81.97768 36055 ft 545 kts 155°
2026-05-05 21:40 27.01832 -81.92725 36056 ft 551 kts 138°
2026-05-05 21:41 26.96264 -81.86830 36055 ft 551 kts 138°
2026-05-05 21:41 26.90675 -81.80951 36048 ft 550 kts 138°
2026-05-05 21:42 26.85083 -81.75097 36048 ft 550 kts 138°
2026-05-05 21:42 26.79497 -81.69250 36052 ft 550 kts 138°
2026-05-05 21:43 26.73920 -81.63406 36050 ft 549 kts 138°
2026-05-05 21:43 26.68338 -81.57572 36048 ft 549 kts 138°
2026-05-05 21:44 26.62756 -81.51754 36050 ft 549 kts 138°
2026-05-05 21:44 26.57217 -81.45984 36043 ft 548 kts 138°
2026-05-05 21:45 26.51610 -81.40135 36039 ft 548 kts 138°
2026-05-05 21:45 26.46078 -81.34381 36045 ft 547 kts 138°
2026-05-05 21:46 26.40499 -81.28601 36037 ft 547 kts 138°
2026-05-05 21:46 26.34929 -81.22820 36049 ft 547 kts 138°
2026-05-05 21:47 26.29365 -81.17026 36036 ft 548 kts 135°
2026-05-05 21:47 26.24374 -81.10623 36041 ft 548 kts 130°
2026-05-05 21:48 26.19444 -81.04153 36049 ft 548 kts 130°
2026-05-05 21:48 26.14520 -80.97691 35902 ft 542 kts 130°
2026-05-05 21:49 26.12110 -80.94515 35649 ft 532 kts 130°
2026-05-05 21:49 26.09737 -80.91391 35396 ft 527 kts 130°
2026-05-05 21:49 26.07373 -80.88287 35148 ft 525 kts 130°
2026-05-05 21:49 26.05014 -80.85199 34898 ft 524 kts 130°
2026-05-05 21:50 26.02646 -80.82103 34079 ft 529 kts 130°
2026-05-05 21:50 26.00250 -80.78974 33073 ft 534 kts 130°
2026-05-05 21:50 25.97828 -80.75813 32145 ft 537 kts 130°
2026-05-05 21:50 25.95420 -80.72676 31612 ft 530 kts 132°
2026-05-05 21:51 25.92799 -80.69843 30951 ft 523 kts 144°
2026-05-05 21:51 25.89803 -80.67633 30328 ft 513 kts 155°
2026-05-05 21:51 25.86558 -80.66086 29719 ft 501 kts 167°
2026-05-05 21:51 25.83210 -80.65245 29189 ft 487 kts 178°
2026-05-05 21:52 25.76618 -80.65290 28125 ft 466 kts 189°
2026-05-05 21:52 25.73403 -80.65526 27609 ft 460 kts 189°
2026-05-05 21:52 25.70235 -80.65752 27102 ft 453 kts 189°
2026-05-05 21:53 25.67112 -80.65975 26603 ft 447 kts 189°
2026-05-05 21:53 25.64024 -80.66200 26109 ft 441 kts 189°
2026-05-05 21:53 25.60995 -80.66417 25621 ft 434 kts 189°
2026-05-05 21:53 25.58001 -80.66636 25144 ft 428 kts 189°
2026-05-05 21:54 25.55042 -80.66859 24670 ft 424 kts 189°
2026-05-05 21:54 25.52117 -80.67082 24201 ft 420 kts 189°
2026-05-05 21:54 25.49208 -80.67304 23739 ft 417 kts 189°
2026-05-05 21:54 25.46321 -80.67521 23265 ft 414 kts 189°
2026-05-05 21:55 25.43457 -80.67732 22814 ft 411 kts 189°
2026-05-05 21:55 25.40616 -80.67942 22360 ft 408 kts 189°
2026-05-05 21:55 25.37825 -80.68338 21906 ft 400 kts 198°
2026-05-05 21:55 25.35146 -80.69088 21473 ft 396 kts 200°
2026-05-05 21:56 25.32489 -80.69842 21045 ft 393 kts 199°
2026-05-05 21:56 25.29842 -80.70586 20628 ft 392 kts 199°
2026-05-05 21:56 25.27209 -80.71321 20188 ft 389 kts 199°
2026-05-05 21:56 25.25474 -80.71805 19902 ft 388 kts 199°
2026-05-05 21:57 25.22866 -80.72531 19478 ft 385 kts 199°
2026-05-05 21:57 25.19402 -80.73494 18917 ft 382 kts 198°
2026-05-05 21:57 25.17698 -80.73969 18649 ft 381 kts 198°
2026-05-05 21:57 25.15134 -80.74685 18228 ft 379 kts 198°
2026-05-05 21:58 25.12589 -80.75399 17794 ft 376 kts 198°
2026-05-05 21:58 25.10060 -80.76108 17388 ft 374 kts 198°
2026-05-05 21:58 25.07550 -80.76811 16963 ft 370 kts 198°
2026-05-05 21:58 25.05062 -80.77507 16570 ft 367 kts 198°
2026-05-05 21:59 25.01830 -80.78510 16040 ft 360 kts 205°
2026-05-05 21:59 24.99627 -80.79745 15651 ft 352 kts 217°
2026-05-05 21:59 24.98308 -80.80826 15388 ft 347 kts 224°
2026-05-05 21:59 24.96526 -80.82603 15015 ft 344 kts 226°
2026-05-05 22:00 24.94758 -80.84366 14642 ft 342 kts 225°
2026-05-05 22:00 24.92999 -80.86115 14269 ft 340 kts 225°
2026-05-05 22:00 24.91253 -80.87848 13892 ft 337 kts 225°
2026-05-05 22:00 24.89517 -80.89567 13528 ft 334 kts 225°
2026-05-05 22:01 24.87792 -80.91273 13157 ft 332 kts 225°
2026-05-05 22:01 24.86084 -80.92964 12810 ft 329 kts 225°
2026-05-05 22:01 24.84389 -80.94644 12442 ft 327 kts 224°
2026-05-05 22:01 24.82735 -80.96279 12085 ft 325 kts 224°
2026-05-05 22:02 24.81058 -80.97934 11724 ft 323 kts 224°
2026-05-05 22:02 24.79391 -80.99581 11378 ft 321 kts 224°
2026-05-05 22:02 24.77738 -81.01227 11024 ft 320 kts 226°
2026-05-05 22:02 24.76326 -81.03094 10664 ft 317 kts 238°
2026-05-05 22:03 24.75191 -81.05132 10333 ft 315 kts 240°
2026-05-05 22:03 24.74070 -81.07144 10178 ft 301 kts 239°
2026-05-05 22:03 24.72997 -81.09058 9993 ft 290 kts 239°
2026-05-05 22:03 24.71952 -81.10923 9760 ft 282 kts 239°
2026-05-05 22:04 24.70909 -81.12789 9635 ft 283 kts 239°
2026-05-05 22:04 24.69897 -81.14606 9520 ft 282 kts 239°
2026-05-05 22:04 24.68870 -81.16446 9415 ft 282 kts 239°
2026-05-05 22:04 24.67841 -81.18283 9183 ft 282 kts 239°
2026-05-05 22:05 24.66815 -81.20109 8892 ft 280 kts 239°
2026-05-05 22:05 24.65794 -81.21927 8600 ft 279 kts 239°
2026-05-05 22:05 24.64762 -81.23725 8292 ft 278 kts 234°
2026-05-05 22:05 24.63525 -81.25351 7984 ft 277 kts 230°
2026-05-05 22:06 24.62266 -81.26950 7668 ft 276 kts 230°
2026-05-05 22:06 24.61012 -81.28540 7373 ft 275 kts 230°
2026-05-05 22:06 24.59763 -81.30125 7101 ft 274 kts 230°
2026-05-05 22:06 24.58518 -81.31706 6811 ft 273 kts 230°
2026-05-05 22:07 24.57288 -81.33287 6514 ft 271 kts 233°
2026-05-05 22:07 24.56360 -81.35072 6215 ft 269 kts 250°
2026-05-05 22:07 24.55935 -81.37060 5918 ft 268 kts 265°
2026-05-05 22:07 24.55910 -81.39098 5617 ft 267 kts 270°
2026-05-05 22:08 24.55901 -81.41134 5315 ft 266 kts 269°
2026-05-05 22:08 24.55883 -81.43167 5029 ft 265 kts 269°
2026-05-05 22:08 24.55864 -81.45176 4737 ft 260 kts 269°
2026-05-05 22:08 24.55847 -81.47152 4442 ft 257 kts 269°
2026-05-05 22:09 24.55830 -81.49092 4171 ft 251 kts 269°
2026-05-05 22:09 24.55810 -81.50987 3929 ft 245 kts 269°
2026-05-05 22:09 24.55795 -81.52836 3687 ft 237 kts 269°
2026-05-05 22:09 24.55780 -81.54612 3403 ft 228 kts 270°
2026-05-05 22:10 24.55767 -81.56329 3137 ft 221 kts 269°
2026-05-05 22:10 24.55753 -81.57967 2920 ft 208 kts 270°
2026-05-05 22:10 24.55738 -81.59507 2676 ft 196 kts 270°
2026-05-05 22:10 24.55725 -81.60970 2447 ft 187 kts 270°
2026-05-05 22:11 24.55712 -81.62356 2237 ft 175 kts 270°
2026-05-05 22:11 24.55700 -81.63628 2058 ft 161 kts 271°
2026-05-05 22:11 24.55689 -81.64840 1871 ft 157 kts 270°
2026-05-05 22:11 24.55677 -81.66013 1695 ft 150 kts 271°
2026-05-05 22:12 24.55667 -81.67146 1477 ft 149 kts 271°
2026-05-05 22:12 24.55658 -81.68269 1269 ft 146 kts 271°
2026-05-05 22:12 24.55652 -81.69383 1137 ft 145 kts 272°
2026-05-05 22:12 24.55652 -81.70496 879 ft 145 kts 272°
2026-05-05 22:13 24.55643 -81.71603 682 ft 146 kts 271°
2026-05-05 22:13 24.55634 -81.72716 524 ft 146 kts 271°
2026-05-05 22:13 24.55626 -81.73830 331 ft 146 kts 271°
2026-05-05 22:13 24.55623 -81.74943 102 ft 145 kts 271°
2026-05-05 22:14 24.55615 -81.76015 15 ft 130 kts 271°
2026-05-05 22:14 24.55588 -81.77002 256 ft 127 kts 241°
2026-05-05 22:14 24.55422 -81.77261 11 ft 4 kts 12°
2026-05-05 22:14 24.55426 -81.77260 12 ft 0 kts 10°
2026-05-05 22:15 24.55433 -81.77259 143 ft 0 kts 10°
2026-05-05 22:15 24.56291 -81.77068 981 ft 206 kts 11°
2026-05-05 22:15 24.57497 -81.76807 1294 ft 168 kts
2026-05-05 22:15 24.58696 -81.76580 1411 ft 183 kts 10°
2026-05-05 22:16 24.60041 -81.76540 1532 ft 207 kts 346°
2026-05-05 22:16 24.61310 -81.77411 1706 ft 230 kts 310°
2026-05-05 22:16 24.61950 -81.79026 2227 ft 236 kts 277°
2026-05-05 22:16 24.61706 -81.80800 2844 ft 240 kts 246°
2026-05-05 22:17 24.60672 -81.82233 3095 ft 242 kts 217°
2026-05-05 22:17 24.59114 -81.82887 3161 ft 244 kts 186°
2026-05-05 22:17 24.57437 -81.82663 3177 ft 244 kts 169°
2026-05-05 22:17 24.55760 -81.82365 3160 ft 244 kts 173°
2026-05-05 22:18 24.54083 -81.82124 3157 ft 244 kts 174°
2026-05-05 22:18 24.52398 -81.81887 3154 ft 244 kts 174°
2026-05-05 22:18 24.50729 -81.81562 3153 ft 244 kts 160°
2026-05-05 22:18 24.49349 -81.80503 3155 ft 246 kts 129°
2026-05-05 22:19 24.48658 -81.78812 3153 ft 246 kts 98°
2026-05-05 22:19 24.48648 -81.76937 3156 ft 246 kts 85°
2026-05-05 22:19 24.48774 -81.75064 3156 ft 246 kts 85°
2026-05-05 22:19 24.48913 -81.73203 3149 ft 238 kts 84°
2026-05-05 22:20 24.49046 -81.71467 3150 ft 217 kts 84°
2026-05-05 22:20 24.49167 -81.69876 3162 ft 205 kts 84°
2026-05-05 22:20 24.49338 -81.68351 3153 ft 199 kts 73°
2026-05-05 22:20 24.50104 -81.67143 3144 ft 189 kts 33°
2026-05-05 22:21 24.51293 -81.66754 3141 ft 176 kts
2026-05-05 22:21 24.52492 -81.66795 3171 ft 172 kts 353°
2026-05-05 22:21 24.53642 -81.67105 2933 ft 170 kts 335°
2026-05-05 22:21 24.54609 -81.67792 2572 ft 165 kts 310°
2026-05-05 22:22 24.55122 -81.68954 2083 ft 170 kts 289°